Regional Weather Roundup
Issued by NWS

Home | Current Version | Previous Version | Text Only | Print | Product List | Glossary On
Versions: 1 2 3 4 5 6 7 8 9 10 11 12 13 14 15 16 17 18 19 20 21 22 23 24 25 26 27 28 29 30 31 32 33 34 35 36 37 38 39 40 41 42 43 44 45 46 47 48 49 50
000
ASUS43 KMKX 251320
RWRWI

WISCONSIN REGIONAL WEATHER ROUNDUP
NATIONAL WEATHER SERVICE MILWAUKEE/SULLIVAN WI
800 AM CDT THU MAY 25 2017

NOTE: "FAIR" INDICATES FEW OR NO CLOUDS BELOW 12,000 FEET WITH NO
SIGNIFICANT WEATHER AND/OR OBSTRUCTIONS TO VISIBILITY.

WIZ001-002-006>008-014>016-023>028-251400-
NORTHWEST WISCONSIN

CITY           SKY/WX    TMP DP  RH WIND       PRES   REMARKS
SUPERIOR ARPT  NOT AVBL
ASHLAND        MOSUNNY   48  44  86 NE3       29.77S
HAYWARD        PTSUNNY   55  48  77 CALM      29.74S
SIREN          CLOUDY    49  47  90 CALM      29.74S
CUMBERLAND     CLOUDY    50  46  87 CALM      29.73F
RICE LAKE      CLOUDY    54  48  82 CALM      29.75S
CHETEK         MOSUNNY   55  49  80 CALM      29.74S
LADYSMITH      SUNNY     55  49  78 CALM      29.75R
EAU CLAIRE     SUNNY     56  50  80 E5        29.72S
MENOMONIE      MOSUNNY   55  50  85 CALM      29.72F
NEW RICHMOND   SUNNY     52  52 100 SE6       29.73R
OSCEOLA        SUNNY     55  54  97 SE5       29.76S
$$

WIZ003>005-009-010-017-018-251400-
NORTH CENTRAL WISCONSIN

CITY           SKY/WX    TMP DP  RH WIND       PRES   REMARKS
MANITOWISH WTR SUNNY     52  47  81 NE8       29.74S
ARBOR VITAE    MOSUNNY   52  47  85 CALM      29.74S
WOODRUFF       MOSUNNY   52  47  85 CALM      29.74S
RHINELANDER    SUNNY     53  46  77 NE6       29.74R
EAGLE RIVER    MOSUNNY   52  43  70 NE5       29.74S
LAND O LAKES   PTSUNNY   52  44  76 NE3       29.76S
PHILLIPS       MOSUNNY   53  49  87 CALM      29.73S
TOMAHAWK       SUNNY     52  46  80 NE3       29.74S
MEDFORD        SUNNY     51  48  89 NE8       29.72S
MERRILL        PTSUNNY   53  48  85 NE3       29.73S
$$

WIZ029-030-035-036-043>047-251400-
CENTRAL WISCONSIN

CITY           SKY/WX    TMP DP  RH WIND       PRES   REMARKS
WAUSAU         SUNNY     54  48  80 N6        29.70S
MOSINEE        MOSUNNY   54  52  94 N7        29.72S
MARSHFIELD     PTSUNNY   53  48  83 NE9       29.70F
STEVENS POINT  MOSUNNY   52  49  90 N5        29.71S
WAUPACA        MOSUNNY   55  52  92 N8        29.69S
WAUTOMA        MOSUNNY   55  49  80 N9        29.69S
WISC RAPIDS    SUNNY     56  49  77 NE7       29.71F
CAMP DOUGLAS   CLOUDY    54  50  87 NE7       29.70R
$$

WIZ011>013-019>022-031-037>040-048>050-251400-
NORTHEAST WISCONSIN

CITY           SKY/WX    TMP DP  RH WIND       PRES   REMARKS
ANTIGO         SUNNY     52  48  86 N8        29.72S
SHAWANO        SUNNY     56  49  77 NE7       29.70R
OCONTO         SUNNY     55  48  77 N7        29.68S
STURGEON BAY   SUNNY     55  50  83 N7        29.68R
GREEN BAY      SUNNY     55  51  86 N12       29.67S
MANITOWOC      MOSUNNY   55  50  83 N13       29.65S
APPLETON       MOSUNNY   54  52  94 N12       29.67R
CLINTONVILLE   SUNNY     54  46  76 NE7       29.69S
OSHKOSH        CLOUDY    54  49  83 N7        29.68R
$$

WIZ032>034-041-042-053>061-251400-
SOUTHWEST WISCONSIN

CITY           SKY/WX    TMP DP  RH WIND       PRES   REMARKS
LA CROSSE      CLOUDY    53  51  93 N5        29.72R
SPARTA         CLOUDY    51  50  95 CALM      29.72R
VIROQUA        CLOUDY    52  50  91 N5        29.71R
BOSCOBEL       CLOUDY    56  50  80 N3        29.70R
PRAIRIE DU CHI CLOUDY    54  48  80 CALM      29.71S
PLATTEVILLE    CLOUDY    54  53  97 N9        29.69R
$$

WIZ056-057-062-063-064-067-068-251400-
SOUTH CENTRAL WISCONSIN

CITY           SKY/WX    TMP DP  RH WIND       PRES   REMARKS
REEDSBURG      CLOUDY    52  52  99 N8        29.69R
BARABOO/DELLS  CLOUDY    52  48  87 N6        29.68F
LONE ROCK      CLOUDY    55  50  83 N8        29.69R
MINERAL POINT  CLOUDY    54  54 100 N6        29.69R
MADISON        CLOUDY    53  50  89 N13       29.66S
MIDDLETON      CLOUDY    54  52  93 CALM      29.68S
WATERTOWN      CLOUDY    53  52  99 N8        29.66R
MONROE         CLOUDY    52  50  93 N17       29.66S
JANESVILLE     CLOUDY    55  54  94 N14       29.65R
$$

WIZ051-052-058>065-066-070>072-251400-
SOUTHEAST WISCONSIN

CITY           SKY/WX    TMP DP  RH WIND       PRES   REMARKS
MILWAUKEE      CLOUDY    56  51  84 N10       29.62R
WAUKESHA       CLOUDY    52  50  93 NW9       29.65R
MILWAUKEE/TIMM PTSUNNY   54  48  82 N8        29.64R
RACINE         CLOUDY    53  49  86 N12G24    29.63R
KENOSHA        CLOUDY    54  50  86 N9        29.62R
FOND DU LAC    CLOUDY    53  48  83 N9        29.67R
SHEBOYGAN      PTSUNNY   54  51  90 N10       29.64S
WEST BEND      CLOUDY    54  52  94 N8        29.64S
JUNEAU         CLOUDY    51  49  93 N8        29.68R
$$

LSZ147-162-251400-
LAKE SUPERIOR

STATION/POSITION TIME  TEMP    WIND        PRES    WAVE
                       AIR SEA DIR/SP/G            HT/PER
                 (UTC) (F)     (DEG/KT/KT) (MB)    (FT/S)
$$

LMZ867-665-643>646-251400-
LAKE MICHIGAN

STATION/POSITION TIME  TEMP    WIND        PRES    WAVE
                       AIR SEA DIR/SP/G            HT/PER
                 (UTC) (F)     (DEG/KT/KT) (MB)    (FT/S)
$$

TC  - TEMPERATURE IN CELSIUS
VSB - VISIBILITY IN STATUTE MILES
WCI - WIND CHILL INDEX
HX  - HEAT INDEX





USA.gov is the U.S. government's official web portal to all federal, state and local government web resources and services.